owner,sensor,date,latitude,longitude,vertical_datum,wind_speed,wind_to_direction,wind_speed_of_gust,qcFlag 
DISL,ioos:station:DISL:MHPA:1,2009-12-01T00:00:00Z,30.6671,-87.9365,8.5,5.48,11.49,-9999.0,'1111122,1111122,1111122' 
DISL,ioos:station:DISL:MHPA:1,2009-12-01T00:30:00Z,30.6671,-87.9365,8.5,5.51,2.067,-9999.0,'1111122,1111122,1111122' 
DISL,ioos:station:DISL:MHPA:1,2009-12-01T01:00:00Z,30.6671,-87.9365,8.5,4.67,5.61,-9999.0,'1111122,1111122,1111122' 
DISL,ioos:station:DISL:MHPA:1,2009-12-01T01:30:00Z,30.6671,-87.9365,8.5,6.58,34.65,-9999.0,'1111122,1111122,1111122' 
DISL,ioos:station:DISL:MHPA:1,2009-12-01T02:00:00Z,30.6671,-87.9365,8.5,4.86,17.01,-9999.0,'1111122,1111122,1111122' 
DISL,ioos:station:DISL:MHPA:1,2009-12-01T02:30:00Z,30.6671,-87.9365,8.5,6.64,4.919,-9999.0,'1111122,1111122,1111122' 
DISL,ioos:station:DISL:MHPA:1,2009-12-01T03:00:00Z,30.6671,-87.9365,8.5,4.89,17.81,-9999.0,'1111122,1111122,1111122' 
DISL,ioos:station:DISL:MHPA:1,2009-12-01T03:30:00Z,30.6671,-87.9365,8.5,3.68,15.74,-9999.0,'1111122,1111122,1111122' 
DISL,ioos:station:DISL:MHPA:1,2009-12-01T04:00:00Z,30.6671,-87.9365,8.5,3.76,4.734,-9999.0,'1111122,1111122,1111122' 
DISL,ioos:station:DISL:MHPA:1,2009-12-01T04:30:00Z,30.6671,-87.9365,8.5,3.29,5.238,-9999.0,'1111122,1111122,1111122' 
DISL,ioos:station:DISL:MHPA:1,2009-12-01T05:00:00Z,30.6671,-87.9365,8.5,2.47,7.69,-9999.0,'1111122,1111122,1111122' 
DISL,ioos:station:DISL:MHPA:1,2009-12-01T05:30:00Z,30.6671,-87.9365,8.5,2.22,11.28,-9999.0,'1111122,1111122,1111122' 
DISL,ioos:station:DISL:MHPA:1,2009-12-01T06:00:00Z,30.6671,-87.9365,8.5,2.38,18.2,-9999.0,'1111122,1111122,1111122' 
DISL,ioos:station:DISL:MHPA:1,2009-12-01T06:30:00Z,30.6671,-87.9365,8.5,2.24,14.74,-9999.0,'1111122,1111122,1111122' 
DISL,ioos:station:DISL:MHPA:1,2009-12-01T07:00:00Z,30.6671,-87.9365,8.5,2.13,1.347,-9999.0,'1111122,1111122,1111122' 
DISL,ioos:station:DISL:MHPA:1,2009-12-01T07:30:00Z,30.6671,-87.9365,8.5,2.66,4.942,-9999.0,'1111122,1111122,1111122' 
DISL,ioos:station:DISL:MHPA:1,2009-12-01T08:00:00Z,30.6671,-87.9365,8.5,2.42,32.46,-9999.0,'1111122,1111122,1111122' 
DISL,ioos:station:DISL:MHPA:1,2009-12-01T08:30:00Z,30.6671,-87.9365,8.5,2.98,19.77,-9999.0,'1111122,1111122,1111122' 
DISL,ioos:station:DISL:MHPA:1,2009-12-01T09:00:00Z,30.6671,-87.9365,8.5,2.77,24.45,-9999.0,'1111122,1111122,1111122' 
DISL,ioos:station:DISL:MHPA:1,2009-12-01T09:30:00Z,30.6671,-87.9365,8.5,3.21,19.5,-9999.0,'1111122,1111122,1111122' 
DISL,ioos:station:DISL:MHPA:1,2009-12-01T10:00:00Z,30.6671,-87.9365,8.5,3.11,28.06,-9999.0,'1111122,1111122,1111122' 
DISL,ioos:station:DISL:MHPA:1,2009-12-01T10:30:00Z,30.6671,-87.9365,8.5,2.88,36.28,-9999.0,'1111122,1111122,1111122' 
DISL,ioos:station:DISL:MHPA:1,2009-12-01T11:00:00Z,30.6671,-87.9365,8.5,2.8,26.95,-9999.0,'1111122,1111122,1111122' 
DISL,ioos:station:DISL:MHPA:1,2009-12-01T11:30:00Z,30.6671,-87.9365,8.5,2.29,32.18,-9999.0,'1111122,1111122,1111122' 
DISL,ioos:station:DISL:MHPA:1,2009-12-01T12:00:00Z,30.6671,-87.9365,8.5,2.69,37.36,-9999.0,'1111122,1111122,1111122' 
DISL,ioos:station:DISL:MHPA:1,2009-12-01T12:30:00Z,30.6671,-87.9365,8.5,2.41,37.22,-9999.0,'1111122,1111122,1111122' 
DISL,ioos:station:DISL:MHPA:1,2009-12-01T13:00:00Z,30.6671,-87.9365,8.5,2.28,27.28,-9999.0,'1111122,1111122,1111122' 
DISL,ioos:station:DISL:MHPA:1,2009-12-01T13:30:00Z,30.6671,-87.9365,8.5,2.11,43.21,-9999.0,'1111122,1111122,1111122' 
DISL,ioos:station:DISL:MHPA:1,2009-12-01T14:00:00Z,30.6671,-87.9365,8.5,2.56,46.15,-9999.0,'1111122,1111122,1111122' 
DISL,ioos:station:DISL:MHPA:1,2009-12-01T14:30:00Z,30.6671,-87.9365,8.5,2.46,38.08,-9999.0,'1111122,1111122,1111122' 
DISL,ioos:station:DISL:MHPA:1,2009-12-01T15:00:00Z,30.6671,-87.9365,8.5,3.23,58.82,-9999.0,'1111122,1111122,1111122' 
DISL,ioos:station:DISL:MHPA:1,2009-12-01T15:30:00Z,30.6671,-87.9365,8.5,2.97,62.08,-9999.0,'1111122,1111122,1111122' 
DISL,ioos:station:DISL:MHPA:1,2009-12-01T16:00:00Z,30.6671,-87.9365,8.5,2.08,27.67,-9999.0,'1111122,1111122,1111122' 
DISL,ioos:station:DISL:MHPA:1,2009-12-01T16:30:00Z,30.6671,-87.9365,8.5,1.75,37.18,-9999.0,'1111122,1111122,1111122' 
DISL,ioos:station:DISL:MHPA:1,2009-12-01T17:00:00Z,30.6671,-87.9365,8.5,0.91,96.2,-9999.0,'1111122,1111122,1111122' 
DISL,ioos:station:DISL:MHPA:1,2009-12-01T17:30:00Z,30.6671,-87.9365,8.5,1.53,28.58,-9999.0,'1111122,1111122,1111122' 
DISL,ioos:station:DISL:MHPA:1,2009-12-01T18:00:00Z,30.6671,-87.9365,8.5,1.41,45.59,-9999.0,'1111122,1111122,1111122' 
DISL,ioos:station:DISL:MHPA:1,2009-12-01T18:30:00Z,30.6671,-87.9365,8.5,2.22,57.19,-9999.0,'1111122,1111122,1111122' 
DISL,ioos:station:DISL:MHPA:1,2009-12-01T19:00:00Z,30.6671,-87.9365,8.5,1.82,60.21,-9999.0,'1111122,1111122,1111122' 
DISL,ioos:station:DISL:MHPA:1,2009-12-01T19:30:00Z,30.6671,-87.9365,8.5,1.84,55.44,-9999.0,'1111122,1111122,1111122' 
DISL,ioos:station:DISL:MHPA:1,2009-12-01T20:00:00Z,30.6671,-87.9365,8.5,1.88,32.09,-9999.0,'1111122,1111122,1111122' 
DISL,ioos:station:DISL:MHPA:1,2009-12-01T20:30:00Z,30.6671,-87.9365,8.5,1.69,39.53,-9999.0,'1111122,1111122,1111122' 
DISL,ioos:station:DISL:MHPA:1,2009-12-01T21:00:00Z,30.6671,-87.9365,8.5,2.64,31.15,-9999.0,'1111122,1111122,1111122' 
DISL,ioos:station:DISL:MHPA:1,2009-12-01T21:30:00Z,30.6671,-87.9365,8.5,2.41,18.95,-9999.0,'1111122,1111122,1111122' 
DISL,ioos:station:DISL:MHPA:1,2009-12-01T22:00:00Z,30.6671,-87.9365,8.5,2.5,32.02,-9999.0,'1111122,1111122,1111122' 
DISL,ioos:station:DISL:MHPA:1,2009-12-01T22:30:00Z,30.6671,-87.9365,8.5,2.72,37.26,-9999.0,'1111122,1111122,1111122' 
DISL,ioos:station:DISL:MHPA:1,2009-12-01T23:00:00Z,30.6671,-87.9365,8.5,3.48,62.23,-9999.0,'1111122,1111122,1111122' 
DISL,ioos:station:DISL:MHPA:1,2009-12-01T23:30:00Z,30.6671,-87.9365,8.5,3.28,51.78,-9999.0,'1111122,1111122,1111122' 
DISL,ioos:station:DISL:MHPA:1,2009-12-02T00:00:00Z,30.6671,-87.9365,8.5,2.95,57.01,-9999.0,'1111122,1111122,1111122' 
DISL,ioos:station:DISL:MHPA:1,2009-12-02T00:30:00Z,30.6671,-87.9365,8.5,3.02,63.72,-9999.0,'1111122,1111122,1111122' 
DISL,ioos:station:DISL:MHPA:1,2009-12-02T01:00:00Z,30.6671,-87.9365,8.5,3.53,65.74,-9999.0,'1111122,1111122,1111122' 
DISL,ioos:station:DISL:MHPA:1,2009-12-02T01:30:00Z,30.6671,-87.9365,8.5,5.28,101.2,-9999.0,'1111122,1111122,1111122' 
DISL,ioos:station:DISL:MHPA:1,2009-12-02T02:00:00Z,30.6671,-87.9365,8.5,6.09,91.1,-9999.0,'1111122,1111122,1111122' 
DISL,ioos:station:DISL:MHPA:1,2009-12-02T02:30:00Z,30.6671,-87.9365,8.5,7.59,97.4,-9999.0,'1111122,1111122,1111122' 
DISL,ioos:station:DISL:MHPA:1,2009-12-02T03:00:00Z,30.6671,-87.9365,8.5,7.51,112.2,-9999.0,'1111122,1111122,1111122' 
DISL,ioos:station:DISL:MHPA:1,2009-12-02T03:30:00Z,30.6671,-87.9365,8.5,7.46,101.0,-9999.0,'1111122,1111122,1111122' 
DISL,ioos:station:DISL:MHPA:1,2009-12-02T04:00:00Z,30.6671,-87.9365,8.5,6.72,118.7,-9999.0,'1111122,1111122,1111122' 
DISL,ioos:station:DISL:MHPA:1,2009-12-02T04:30:00Z,30.6671,-87.9365,8.5,8.74,115.8,-9999.0,'1111122,1111122,1111122' 
DISL,ioos:station:DISL:MHPA:1,2009-12-02T05:00:00Z,30.6671,-87.9365,8.5,5.9,306.8,-9999.0,'1111122,1111122,1111122' 
DISL,ioos:station:DISL:MHPA:1,2009-12-02T05:30:00Z,30.6671,-87.9365,8.5,3.88,330.8,-9999.0,'1111122,1111122,1111122' 
DISL,ioos:station:DISL:MHPA:1,2009-12-02T06:00:00Z,30.6671,-87.9365,8.5,2.33,4.18,-9999.0,'1111122,1111122,1111122' 
DISL,ioos:station:DISL:MHPA:1,2009-12-02T06:30:00Z,30.6671,-87.9365,8.5,1.09,357.5,-9999.0,'1111122,1111122,1111122' 
DISL,ioos:station:DISL:MHPA:1,2009-12-02T07:00:00Z,30.6671,-87.9365,8.5,2.42,339.0,-9999.0,'1111122,1111122,1111122' 
DISL,ioos:station:DISL:MHPA:1,2009-12-02T07:30:00Z,30.6671,-87.9365,8.5,1.96,5.306,-9999.0,'1111122,1111122,1111122' 
DISL,ioos:station:DISL:MHPA:1,2009-12-02T08:00:00Z,30.6671,-87.9365,8.5,1.49,355.2,-9999.0,'1111122,1111122,1111122' 
DISL,ioos:station:DISL:MHPA:1,2009-12-02T08:30:00Z,30.6671,-87.9365,8.5,1.63,310.5,-9999.0,'1111122,1111122,1111122' 
DISL,ioos:station:DISL:MHPA:1,2009-12-02T09:00:00Z,30.6671,-87.9365,8.5,0.92,285.4,-9999.0,'1111122,1111122,1111122' 
DISL,ioos:station:DISL:MHPA:1,2009-12-02T09:30:00Z,30.6671,-87.9365,8.5,2.26,166.2,-9999.0,'1111122,1111122,1111122' 
DISL,ioos:station:DISL:MHPA:1,2009-12-02T10:00:00Z,30.6671,-87.9365,8.5,2.41,212.6,-9999.0,'1111122,1111122,1111122' 
DISL,ioos:station:DISL:MHPA:1,2009-12-02T10:30:00Z,30.6671,-87.9365,8.5,4.3,140.6,-9999.0,'1111122,1111122,1111122' 
DISL,ioos:station:DISL:MHPA:1,2009-12-02T11:00:00Z,30.6671,-87.9365,8.5,4.68,181.6,-9999.0,'1111122,1111122,1111122' 
DISL,ioos:station:DISL:MHPA:1,2009-12-02T11:30:00Z,30.6671,-87.9365,8.5,5.8,183.6,-9999.0,'1111122,1111122,1111122' 
DISL,ioos:station:DISL:MHPA:1,2009-12-02T12:00:00Z,30.6671,-87.9365,8.5,4.19,154.6,-9999.0,'1111122,1111122,1111122' 
DISL,ioos:station:DISL:MHPA:1,2009-12-02T12:30:00Z,30.6671,-87.9365,8.5,4.35,143.1,-9999.0,'1111122,1111122,1111122' 
DISL,ioos:station:DISL:MHPA:1,2009-12-02T13:00:00Z,30.6671,-87.9365,8.5,4.9,168.9,-9999.0,'1111122,1111122,1111122' 
DISL,ioos:station:DISL:MHPA:1,2009-12-02T13:30:00Z,30.6671,-87.9365,8.5,6.72,157.9,-9999.0,'1111122,1111122,1111122' 
DISL,ioos:station:DISL:MHPA:1,2009-12-02T14:00:00Z,30.6671,-87.9365,8.5,5.73,159.8,-9999.0,'1111122,1111122,1111122' 
DISL,ioos:station:DISL:MHPA:1,2009-12-02T14:30:00Z,30.6671,-87.9365,8.5,6.3,180.2,-9999.0,'1111122,1111122,1111122' 
DISL,ioos:station:DISL:MHPA:1,2009-12-02T15:00:00Z,30.6671,-87.9365,8.5,6.91,196.1,-9999.0,'1111122,1111122,1111122' 
DISL,ioos:station:DISL:MHPA:1,2009-12-02T15:30:00Z,30.6671,-87.9365,8.5,8.03,222.7,-9999.0,'1111122,1111122,1111122' 
DISL,ioos:station:DISL:MHPA:1,2009-12-02T16:00:00Z,30.6671,-87.9365,8.5,8.18,219.3,-9999.0,'1111122,1111122,1111122' 
DISL,ioos:station:DISL:MHPA:1,2009-12-02T16:30:00Z,30.6671,-87.9365,8.5,10.12,227.7,-9999.0,'1111122,1111122,1111122' 
DISL,ioos:station:DISL:MHPA:1,2009-12-02T17:00:00Z,30.6671,-87.9365,8.5,7.63,218.0,-9999.0,'1111122,1111122,1111122' 
DISL,ioos:station:DISL:MHPA:1,2009-12-02T17:30:00Z,30.6671,-87.9365,8.5,8.51,219.5,-9999.0,'1111122,1111122,1111122' 
DISL,ioos:station:DISL:MHPA:1,2009-12-02T18:00:00Z,30.6671,-87.9365,8.5,7.3,223.6,-9999.0,'1111122,1111122,1111122' 
DISL,ioos:station:DISL:MHPA:1,2009-12-02T18:30:00Z,30.6671,-87.9365,8.5,8.77,227.3,-9999.0,'1111122,1111122,1111122' 
DISL,ioos:station:DISL:MHPA:1,2009-12-02T19:00:00Z,30.6671,-87.9365,8.5,7.87,227.8,-9999.0,'1111122,1111122,1111122' 
DISL,ioos:station:DISL:MHPA:1,2009-12-02T19:30:00Z,30.6671,-87.9365,8.5,9.39,236.6,-9999.0,'1111122,1111122,1111122' 
DISL,ioos:station:DISL:MHPA:1,2009-12-02T20:00:00Z,30.6671,-87.9365,8.5,6.43,226.8,-9999.0,'1111122,1111122,1111122' 
DISL,ioos:station:DISL:MHPA:1,2009-12-02T20:30:00Z,30.6671,-87.9365,8.5,5.6,227.0,-9999.0,'1111122,1111122,1111122' 
DISL,ioos:station:DISL:MHPA:1,2009-12-02T21:00:00Z,30.6671,-87.9365,8.5,6.26,236.6,-9999.0,'1111122,1111122,1111122' 
DISL,ioos:station:DISL:MHPA:1,2009-12-02T21:30:00Z,30.6671,-87.9365,8.5,6.58,237.5,-9999.0,'1111122,1111122,1111122' 
DISL,ioos:station:DISL:MHPA:1,2009-12-02T22:00:00Z,30.6671,-87.9365,8.5,7.42,232.5,-9999.0,'1111122,1111122,1111122' 
DISL,ioos:station:DISL:MHPA:1,2009-12-02T22:30:00Z,30.6671,-87.9365,8.5,5.65,233.5,-9999.0,'1111122,1111122,1111122' 
DISL,ioos:station:DISL:MHPA:1,2009-12-02T23:00:00Z,30.6671,-87.9365,8.5,5.59,230.7,-9999.0,'1111122,1111122,1111122' 
DISL,ioos:station:DISL:MHPA:1,2009-12-02T23:30:00Z,30.6671,-87.9365,8.5,5.3,231.9,-9999.0,'1111122,1111122,1111122' 
DISL,ioos:station:DISL:MHPA:1,2009-12-03T00:00:00Z,30.6671,-87.9365,8.5,5.42,232.4,-9999.0,'1111122,1111122,1111122' 
DISL,ioos:station:DISL:MHPA:1,2009-12-03T00:30:00Z,30.6671,-87.9365,8.5,6.51,231.7,-9999.0,'1111122,1111122,1111122' 
DISL,ioos:station:DISL:MHPA:1,2009-12-03T01:00:00Z,30.6671,-87.9365,8.5,5.88,230.5,-9999.0,'1111122,1111122,1111122' 
DISL,ioos:station:DISL:MHPA:1,2009-12-03T01:30:00Z,30.6671,-87.9365,8.5,6.16,231.9,-9999.0,'1111122,1111122,1111122' 
DISL,ioos:station:DISL:MHPA:1,2009-12-03T02:00:00Z,30.6671,-87.9365,8.5,5.28,267.5,-9999.0,'1111122,1111122,1111122' 
DISL,ioos:station:DISL:MHPA:1,2009-12-03T02:30:00Z,30.6671,-87.9365,8.5,5.08,299.1,-9999.0,'1111122,1111122,1111122' 
DISL,ioos:station:DISL:MHPA:1,2009-12-03T03:00:00Z,30.6671,-87.9365,8.5,5.77,285.6,-9999.0,'1111122,1111122,1111122' 
DISL,ioos:station:DISL:MHPA:1,2009-12-03T03:30:00Z,30.6671,-87.9365,8.5,6.19,299.8,-9999.0,'1111122,1111122,1111122' 
DISL,ioos:station:DISL:MHPA:1,2009-12-03T04:00:00Z,30.6671,-87.9365,8.5,6.06,292.9,-9999.0,'1111122,1111122,1111122' 
DISL,ioos:station:DISL:MHPA:1,2009-12-03T04:30:00Z,30.6671,-87.9365,8.5,5.95,287.1,-9999.0,'1111122,1111122,1111122' 
DISL,ioos:station:DISL:MHPA:1,2009-12-03T05:00:00Z,30.6671,-87.9365,8.5,5.68,291.2,-9999.0,'1111122,1111122,1111122' 
DISL,ioos:station:DISL:MHPA:1,2009-12-03T05:30:00Z,30.6671,-87.9365,8.5,4.63,289.3,-9999.0,'1111122,1111122,1111122' 
DISL,ioos:station:DISL:MHPA:1,2009-12-03T06:00:00Z,30.6671,-87.9365,8.5,4.98,291.6,-9999.0,'1111122,1111122,1111122' 
DISL,ioos:station:DISL:MHPA:1,2009-12-03T06:30:00Z,30.6671,-87.9365,8.5,4.84,291.1,-9999.0,'1111122,1111122,1111122' 
DISL,ioos:station:DISL:MHPA:1,2009-12-03T07:00:00Z,30.6671,-87.9365,8.5,4.95,304.9,-9999.0,'1111122,1111122,1111122' 
DISL,ioos:station:DISL:MHPA:1,2009-12-03T07:30:00Z,30.6671,-87.9365,8.5,4.92,320.1,-9999.0,'1111122,1111122,1111122' 
DISL,ioos:station:DISL:MHPA:1,2009-12-03T08:00:00Z,30.6671,-87.9365,8.5,5.1,314.1,-9999.0,'1111122,1111122,1111122' 
DISL,ioos:station:DISL:MHPA:1,2009-12-03T08:30:00Z,30.6671,-87.9365,8.5,5.28,332.1,-9999.0,'1111122,1111122,1111122' 
DISL,ioos:station:DISL:MHPA:1,2009-12-03T09:00:00Z,30.6671,-87.9365,8.5,5.29,322.3,-9999.0,'1111122,1111122,1111122' 
DISL,ioos:station:DISL:MHPA:1,2009-12-03T09:30:00Z,30.6671,-87.9365,8.5,3.76,338.0,-9999.0,'1111122,1111122,1111122' 
DISL,ioos:station:DISL:MHPA:1,2009-12-03T10:00:00Z,30.6671,-87.9365,8.5,3.26,332.3,-9999.0,'1111122,1111122,1111122' 
DISL,ioos:station:DISL:MHPA:1,2009-12-03T10:30:00Z,30.6671,-87.9365,8.5,3.36,322.3,-9999.0,'1111122,1111122,1111122' 
DISL,ioos:station:DISL:MHPA:1,2009-12-03T11:00:00Z,30.6671,-87.9365,8.5,3.6,321.8,-9999.0,'1111122,1111122,1111122' 
DISL,ioos:station:DISL:MHPA:1,2009-12-03T11:30:00Z,30.6671,-87.9365,8.5,3.6,329.7,-9999.0,'1111122,1111122,1111122' 
DISL,ioos:station:DISL:MHPA:1,2009-12-03T12:00:00Z,30.6671,-87.9365,8.5,3.88,321.6,-9999.0,'1111122,1111122,1111122' 
DISL,ioos:station:DISL:MHPA:1,2009-12-03T12:30:00Z,30.6671,-87.9365,8.5,3.83,340.1,-9999.0,'1111122,1111122,1111122' 
DISL,ioos:station:DISL:MHPA:1,2009-12-03T13:00:00Z,30.6671,-87.9365,8.5,4.36,330.7,-9999.0,'1111122,1111122,1111122' 
DISL,ioos:station:DISL:MHPA:1,2009-12-03T13:30:00Z,30.6671,-87.9365,8.5,4.22,332.3,-9999.0,'1111122,1111122,1111122' 
DISL,ioos:station:DISL:MHPA:1,2009-12-03T14:00:00Z,30.6671,-87.9365,8.5,4.73,326.6,-9999.0,'1111122,1111122,1111122' 
DISL,ioos:station:DISL:MHPA:1,2009-12-03T14:30:00Z,30.6671,-87.9365,8.5,3.98,349.4,-9999.0,'1111122,1111122,1111122' 
DISL,ioos:station:DISL:MHPA:1,2009-12-03T15:00:00Z,30.6671,-87.9365,8.5,4.01,345.3,-9999.0,'1111122,1111122,1111122' 
DISL,ioos:station:DISL:MHPA:1,2009-12-03T15:30:00Z,30.6671,-87.9365,8.5,3.63,342.9,-9999.0,'1111122,1111122,1111122' 
DISL,ioos:station:DISL:MHPA:1,2009-12-03T16:00:00Z,30.6671,-87.9365,8.5,3.19,358.9,-9999.0,'1111122,1111122,1111122' 
DISL,ioos:station:DISL:MHPA:1,2009-12-03T16:30:00Z,30.6671,-87.9365,8.5,3.28,349.3,-9999.0,'1111122,1111122,1111122' 
DISL,ioos:station:DISL:MHPA:1,2009-12-03T17:00:00Z,30.6671,-87.9365,8.5,2.93,332.2,-9999.0,'1111122,1111122,1111122' 
DISL,ioos:station:DISL:MHPA:1,2009-12-03T17:30:00Z,30.6671,-87.9365,8.5,2.77,347.6,-9999.0,'1111122,1111122,1111122' 
DISL,ioos:station:DISL:MHPA:1,2009-12-03T18:00:00Z,30.6671,-87.9365,8.5,3.78,329.6,-9999.0,'1111122,1111122,1111122' 
DISL,ioos:station:DISL:MHPA:1,2009-12-03T18:30:00Z,30.6671,-87.9365,8.5,3.84,325.6,-9999.0,'1111122,1111122,1111122' 
DISL,ioos:station:DISL:MHPA:1,2009-12-03T19:00:00Z,30.6671,-87.9365,8.5,3.95,323.3,-9999.0,'1111122,1111122,1111122' 
DISL,ioos:station:DISL:MHPA:1,2009-12-03T19:30:00Z,30.6671,-87.9365,8.5,3.75,332.1,-9999.0,'1111122,1111122,1111122' 
DISL,ioos:station:DISL:MHPA:1,2009-12-03T20:00:00Z,30.6671,-87.9365,8.5,4.2,345.3,-9999.0,'1111122,1111122,1111122' 
DISL,ioos:station:DISL:MHPA:1,2009-12-03T20:30:00Z,30.6671,-87.9365,8.5,3.75,338.3,-9999.0,'1111122,1111122,1111122' 
DISL,ioos:station:DISL:MHPA:1,2009-12-03T21:00:00Z,30.6671,-87.9365,8.5,3.84,352.0,-9999.0,'1111122,1111122,1111122' 
DISL,ioos:station:DISL:MHPA:1,2009-12-03T21:30:00Z,30.6671,-87.9365,8.5,3.64,9.78,-9999.0,'1111122,1111122,1111122' 
DISL,ioos:station:DISL:MHPA:1,2009-12-03T22:00:00Z,30.6671,-87.9365,8.5,4.27,2.087,-9999.0,'1111122,1111122,1111122' 
DISL,ioos:station:DISL:MHPA:1,2009-12-03T22:30:00Z,30.6671,-87.9365,8.5,4.42,351.1,-9999.0,'1111122,1111122,1111122' 
DISL,ioos:station:DISL:MHPA:1,2009-12-03T23:00:00Z,30.6671,-87.9365,8.5,3.34,350.3,-9999.0,'1111122,1111122,1111122' 
DISL,ioos:station:DISL:MHPA:1,2009-12-03T23:30:00Z,30.6671,-87.9365,8.5,3.22,345.0,-9999.0,'1111122,1111122,1111122' 
DISL,ioos:station:DISL:MHPA:1,2009-12-04T00:00:00Z,30.6671,-87.9365,8.5,2.84,349.5,-9999.0,'1111122,1111122,1111122' 
DISL,ioos:station:DISL:MHPA:1,2009-12-04T00:30:00Z,30.6671,-87.9365,8.5,3.72,350.0,-9999.0,'1111122,1111122,1111122' 
DISL,ioos:station:DISL:MHPA:1,2009-12-04T01:00:00Z,30.6671,-87.9365,8.5,1.83,18.43,-9999.0,'1111122,1111122,1111122' 
DISL,ioos:station:DISL:MHPA:1,2009-12-04T01:30:00Z,30.6671,-87.9365,8.5,3.06,5.949,-9999.0,'1111122,1111122,1111122' 
DISL,ioos:station:DISL:MHPA:1,2009-12-04T02:00:00Z,30.6671,-87.9365,8.5,2.23,12.91,-9999.0,'1111122,1111122,1111122' 
DISL,ioos:station:DISL:MHPA:1,2009-12-04T02:30:00Z,30.6671,-87.9365,8.5,2.62,1.455,-9999.0,'1111122,1111122,1111122' 
DISL,ioos:station:DISL:MHPA:1,2009-12-04T03:00:00Z,30.6671,-87.9365,8.5,2.73,10.87,-9999.0,'1111122,1111122,1111122' 
DISL,ioos:station:DISL:MHPA:1,2009-12-04T03:30:00Z,30.6671,-87.9365,8.5,3.0,23.96,-9999.0,'1111122,1111122,1111122' 
DISL,ioos:station:DISL:MHPA:1,2009-12-04T04:00:00Z,30.6671,-87.9365,8.5,3.02,18.87,-9999.0,'1111122,1111122,1111122' 
DISL,ioos:station:DISL:MHPA:1,2009-12-04T04:30:00Z,30.6671,-87.9365,8.5,2.7,27.67,-9999.0,'1111122,1111122,1111122' 
DISL,ioos:station:DISL:MHPA:1,2009-12-04T05:00:00Z,30.6671,-87.9365,8.5,2.55,26.69,-9999.0,'1111122,1111122,1111122' 
DISL,ioos:station:DISL:MHPA:1,2009-12-04T05:30:00Z,30.6671,-87.9365,8.5,2.95,15.96,-9999.0,'1111122,1111122,1111122' 
DISL,ioos:station:DISL:MHPA:1,2009-12-04T06:00:00Z,30.6671,-87.9365,8.5,2.31,6.266,-9999.0,'1111122,1111122,1111122' 
DISL,ioos:station:DISL:MHPA:1,2009-12-04T06:30:00Z,30.6671,-87.9365,8.5,2.13,10.28,-9999.0,'1111122,1111122,1111122' 
DISL,ioos:station:DISL:MHPA:1,2009-12-04T07:00:00Z,30.6671,-87.9365,8.5,1.6,10.54,-9999.0,'1111122,1111122,1111122' 
DISL,ioos:station:DISL:MHPA:1,2009-12-04T07:30:00Z,30.6671,-87.9365,8.5,1.26,9.6,-9999.0,'1111122,1111122,1111122' 
DISL,ioos:station:DISL:MHPA:1,2009-12-04T08:00:00Z,30.6671,-87.9365,8.5,1.53,29.31,-9999.0,'1111122,1111122,1111122' 
DISL,ioos:station:DISL:MHPA:1,2009-12-04T08:30:00Z,30.6671,-87.9365,8.5,1.7,38.44,-9999.0,'1111122,1111122,1111122' 
DISL,ioos:station:DISL:MHPA:1,2009-12-04T09:00:00Z,30.6671,-87.9365,8.5,2.64,36.39,-9999.0,'1111122,1111122,1111122' 
DISL,ioos:station:DISL:MHPA:1,2009-12-04T09:30:00Z,30.6671,-87.9365,8.5,2.63,16.8,-9999.0,'1111122,1111122,1111122' 
DISL,ioos:station:DISL:MHPA:1,2009-12-04T10:00:00Z,30.6671,-87.9365,8.5,3.18,355.7,-9999.0,'1111122,1111122,1111122' 
DISL,ioos:station:DISL:MHPA:1,2009-12-04T10:30:00Z,30.6671,-87.9365,8.5,2.01,14.89,-9999.0,'1111122,1111122,1111122' 
DISL,ioos:station:DISL:MHPA:1,2009-12-04T11:00:00Z,30.6671,-87.9365,8.5,1.6,34.61,-9999.0,'1111122,1111122,1111122' 
DISL,ioos:station:DISL:MHPA:1,2009-12-04T11:30:00Z,30.6671,-87.9365,8.5,2.34,11.99,-9999.0,'1111122,1111122,1111122' 
DISL,ioos:station:DISL:MHPA:1,2009-12-04T12:00:00Z,30.6671,-87.9365,8.5,3.13,18.45,-9999.0,'1111122,1111122,1111122' 
DISL,ioos:station:DISL:MHPA:1,2009-12-04T12:30:00Z,30.6671,-87.9365,8.5,2.97,16.35,-9999.0,'1111122,1111122,1111122' 
DISL,ioos:station:DISL:MHPA:1,2009-12-04T13:00:00Z,30.6671,-87.9365,8.5,3.85,16.83,-9999.0,'1111122,1111122,1111122' 
DISL,ioos:station:DISL:MHPA:1,2009-12-04T13:30:00Z,30.6671,-87.9365,8.5,2.56,22.51,-9999.0,'1111122,1111122,1111122' 
DISL,ioos:station:DISL:MHPA:1,2009-12-04T14:00:00Z,30.6671,-87.9365,8.5,2.3,25.42,-9999.0,'1111122,1111122,1111122' 
DISL,ioos:station:DISL:MHPA:1,2009-12-04T14:30:00Z,30.6671,-87.9365,8.5,2.45,5.271,-9999.0,'1111122,1111122,1111122' 
DISL,ioos:station:DISL:MHPA:1,2009-12-04T15:00:00Z,30.6671,-87.9365,8.5,3.22,9.48,-9999.0,'1111122,1111122,1111122' 
DISL,ioos:station:DISL:MHPA:1,2009-12-04T15:30:00Z,30.6671,-87.9365,8.5,2.41,8.9,-9999.0,'1111122,1111122,1111122' 
DISL,ioos:station:DISL:MHPA:1,2009-12-04T16:00:00Z,30.6671,-87.9365,8.5,2.28,20.92,-9999.0,'1111122,1111122,1111122' 
DISL,ioos:station:DISL:MHPA:1,2009-12-04T16:30:00Z,30.6671,-87.9365,8.5,2.62,71.4,-9999.0,'1111122,1111122,1111122' 
DISL,ioos:station:DISL:MHPA:1,2009-12-04T17:00:00Z,30.6671,-87.9365,8.5,1.91,21.36,-9999.0,'1111122,1111122,1111122' 
DISL,ioos:station:DISL:MHPA:1,2009-12-04T17:30:00Z,30.6671,-87.9365,8.5,1.43,344.6,-9999.0,'1111122,1111122,1111122' 
DISL,ioos:station:DISL:MHPA:1,2009-12-04T18:00:00Z,30.6671,-87.9365,8.5,2.44,316.8,-9999.0,'1111122,1111122,1111122' 
DISL,ioos:station:DISL:MHPA:1,2009-12-04T18:30:00Z,30.6671,-87.9365,8.5,2.49,349.2,-9999.0,'1111122,1111122,1111122' 
DISL,ioos:station:DISL:MHPA:1,2009-12-04T19:00:00Z,30.6671,-87.9365,8.5,2.93,331.3,-9999.0,'1111122,1111122,1111122' 
DISL,ioos:station:DISL:MHPA:1,2009-12-04T19:30:00Z,30.6671,-87.9365,8.5,3.43,346.1,-9999.0,'1111122,1111122,1111122' 
DISL,ioos:station:DISL:MHPA:1,2009-12-04T20:00:00Z,30.6671,-87.9365,8.5,4.34,341.1,-9999.0,'1111122,1111122,1111122' 
DISL,ioos:station:DISL:MHPA:1,2009-12-04T20:30:00Z,30.6671,-87.9365,8.5,3.53,344.2,-9999.0,'1111122,1111122,1111122' 
DISL,ioos:station:DISL:MHPA:1,2009-12-04T21:00:00Z,30.6671,-87.9365,8.5,4.21,350.9,-9999.0,'1111122,1111122,1111122' 
DISL,ioos:station:DISL:MHPA:1,2009-12-04T21:30:00Z,30.6671,-87.9365,8.5,2.63,3.486,-9999.0,'1111122,1111122,1111122' 
DISL,ioos:station:DISL:MHPA:1,2009-12-04T22:00:00Z,30.6671,-87.9365,8.5,2.06,18.16,-9999.0,'1111122,1111122,1111122' 
DISL,ioos:station:DISL:MHPA:1,2009-12-04T22:30:00Z,30.6671,-87.9365,8.5,1.75,5.948,-9999.0,'1111122,1111122,1111122' 
DISL,ioos:station:DISL:MHPA:1,2009-12-04T23:00:00Z,30.6671,-87.9365,8.5,3.05,353.2,-9999.0,'1111122,1111122,1111122' 
DISL,ioos:station:DISL:MHPA:1,2009-12-04T23:30:00Z,30.6671,-87.9365,8.5,2.96,353.0,-9999.0,'1111122,1111122,1111122' 
DISL,ioos:station:DISL:MHPA:1,2009-12-05T00:00:00Z,30.6671,-87.9365,8.5,3.84,351.9,-9999.0,'1111122,1111122,1111122' 
DISL,ioos:station:DISL:MHPA:1,2009-12-05T00:30:00Z,30.6671,-87.9365,8.5,4.2,339.7,-9999.0,'1111122,1111122,1111122' 
DISL,ioos:station:DISL:MHPA:1,2009-12-05T01:00:00Z,30.6671,-87.9365,8.5,5.11,348.9,-9999.0,'1111122,1111122,1111122' 
DISL,ioos:station:DISL:MHPA:1,2009-12-05T01:30:00Z,30.6671,-87.9365,8.5,4.61,345.8,-9999.0,'1111122,1111122,1111122' 
DISL,ioos:station:DISL:MHPA:1,2009-12-05T02:00:00Z,30.6671,-87.9365,8.5,5.21,349.3,-9999.0,'1111122,1111122,1111122' 
DISL,ioos:station:DISL:MHPA:1,2009-12-05T02:30:00Z,30.6671,-87.9365,8.5,5.9,352.7,-9999.0,'1111122,1111122,1111122' 
DISL,ioos:station:DISL:MHPA:1,2009-12-05T03:00:00Z,30.6671,-87.9365,8.5,6.43,350.9,-9999.0,'1111122,1111122,1111122' 
DISL,ioos:station:DISL:MHPA:1,2009-12-05T03:30:00Z,30.6671,-87.9365,8.5,5.39,6.247,-9999.0,'1111122,1111122,1111122' 
DISL,ioos:station:DISL:MHPA:1,2009-12-05T04:00:00Z,30.6671,-87.9365,8.5,5.35,341.8,-9999.0,'1111122,1111122,1111122' 
DISL,ioos:station:DISL:MHPA:1,2009-12-05T04:30:00Z,30.6671,-87.9365,8.5,5.87,335.2,-9999.0,'1111122,1111122,1111122' 